Regional Weather Roundup
Issued by NWS Grand Forks, ND

Home | Current Version | Previous Version | Text Only | Print | Product List | Glossary Off
Versions: 1 2 3 4 5 6 7 8 9 10 11 12 13 14 15 16 17 18 19 20 21 22 23 24 25 26 27 28 29 30 31 32 33 34 35 36 37 38 39 40 41 42 43 44 45 46 47 48 49 50

000
ASUS43 KFGF 290831
RWRFGF
PRAIRIE TO PINES  WEATHER ROUNDUP
NATIONAL WEATHER SERVICE EASTERN NORTH DAKOTA/GRAND FORKS ND
300 AM CDT SUN MAY 29 2016

 **SATELLITE DATA USED TO AUGMENT SKY COVER AT AUTOMATED STATIONS**
 *****  WEATHER ACROSS EASTERN NORTH DAKOTA  *****

CITY           SKY/WX    TMP DP  RH WIND       PRES   REMARKS
GRAND FORKS    CLOUDY    59  57  93 NW5       29.86S
GRAND FRKS AFB FOG       57  57 100 NW3       29.88R VSB 1
GRAND FRKS NWS   N/A     57 N/A N/A N2          N/A
DEVILS LAKE    CLOUDY    58  57  97 N6        29.92S
FARGO          CLOUDY    60  58  92 NW7       29.87R
WAHPETON ARPT  MOSUNNY   54  52  94 NW5       29.88S
$$

 ***** WEATHER ACROSS CENTRAL AND WESTERN NORTH DAKOTA  *****

CITY           SKY/WX    TMP DP  RH WIND       PRES   REMARKS
BISMARCK       CLEAR     52  51  97 W5        29.96S
MINOT          PTCLDY    56  54  93 SW6       29.93F
JAMESTOWN      CLOUDY    54  53  97 NW3       29.90S
MINOT AFB      CLEAR     53  52  97 SW7       29.93S
GARRISON         N/A     51  49  92 NW7       29.95S
WILLISTON      CLEAR     45  43  93 CALM      29.97S
DICKINSON      PTCLDY    47  46  97 W8        29.99R
HETTINGER      FOG       39  38  96 CALM      30.03S VSB 1/4
$$

 *****  OTHER AIRPORT OBSERVATIONS IN OUR AREA  *****

CITY           SKY/WX    TMP DP  RH WIND       PRES   REMARKS
WALHALLA       FAIR      55  55 100 NW8       29.91S
GRAFTON AIRPOR CLOUDY    59  59 100 N9        29.89S
VALLEY CITY AR PTSUNNY   55  55 100 NW9       29.92S
CANDO          CLOUDY    55  55 100 NE5       29.95S
CAVALIER APRT  CLOUDY    57  57 100 NW9       29.89S
GWINNER        PTSUNNY   57  57 100 CALM      29.90S VSB 1
SHEYENNE NWR     N/A     55  55 100 NW3       29.95S
ROLLA          FOG       52  52 100 N6        29.94S VSB 3/4
 ***** THE ABOVE OBSERVATIONS ARE NON NWS ARE NOT QUALITY
       CONTROLLED AND MAY MIS-REPORT RAIN FOR SNOW...
$$

  *****  WEATHER ACROSS NORTHERN MINNESOTA  *****

CITY           SKY/WX    TMP DP  RH WIND       PRES   REMARKS
FLAG ISLAND    CLOUDY    54  54 100 N13       29.83S
WARROAD        LGT RAIN  55  52  88 NW3       29.85S
ROSEAU         LGT RAIN  55  52  88 NW5       29.86R
HALLOCK        CLOUDY    57  55  94 N6        29.87S
THF RVR FALLS  CLOUDY    55  54  94 NW5       29.88R
BAUDETTE       CLOUDY    55  53  93 NW5       29.82F
WASKISH        DRIZZLE   55  54  94 NW5       29.82S
CROOKSTON      CLOUDY    57  57 100 CALM      29.88R
GREENBUSH NDAW   N/A     55  55 100 N3          N/A
$$
  *****  WEATHER ACROSS CENTRAL AND WEST MINNESOTA  *****

CITY           SKY/WX    TMP DP  RH WIND       PRES   REMARKS
FOSSTON        CLOUDY    54  54 100 NW5       29.87R
BEMIDJI        DRIZZLE   55  55  99 NW8       29.83S
PARK RAPIDS    LGT RAIN  59  56  89 W7        29.83S
ELBOW LAKE     CLOUDY    58  58 100 NW8       29.88S
WADENA         LGT RAIN  57  57 100 W7        29.84S
DETROIT LAKES  CLOUDY    57  55  94 NW9       29.87S
MOORHEAD       CLOUDY    61  57  88 NW5       29.88S
FERGUS FALLS   CLOUDY    59  59 100 NW8       29.85S
MORRIS MN      CLOUDY    57  55  94 W7        29.88R FOG
STAPLES        CLOUDY    57  57 100 W6        29.84R
$$
  *****  WEATHER ELSEWHERE ACROSS MINNESOTA  *****

CITY           SKY/WX    TMP DP  RH WIND       PRES   REMARKS
DULUTH         LGT RAIN  56  55  97 CALM      29.79F FOG
INTRNTL FALLS  FOG       57  56  96 N3        29.79F VSB 1/4
ELY            CLOUDY    59  57  94 CALM      29.78F
CLOQUET        CLOUDY    55  54  94 CALM      29.80F FOG
WHEATON        CLOUDY    61  57  88 W3        29.91R
BRAINERD       CLOUDY    59  58  96 W5        29.82F
HIBBING        FOG       57  57 100 CALM      29.79S VSB 1
ALEXANDRIA     LGT RAIN  59  57  93 W10       29.87S
SAINT CLOUD    CLOUDY    59  58  96 W5        29.83S
MINNEAPOLIS    MOCLDY    62  60  93 SW5       29.84S
$$

  *****  WEATHER ACROSS SOUTH DAKOTA  *****

CITY           SKY/WX    TMP DP  RH WIND       PRES   REMARKS
SIOUX FALLS    CLEAR     56  54  93 CALM      29.95S
BROOKINGS      CLOUDY    56  54  93 CALM      29.94R
WATERTOWN      PTCLDY    54  52  93 SW3       29.93R
HURON          PTCLDY    58  55  90 W6        29.94R
SISSETON         N/A     58  56  93 N3        29.88S
ABERDEEN       CLOUDY    58  55  90 W7        29.93R
MITCHELL       CLOUDY    61  59  93 W8        29.96R
PIERRE         PTCLDY    55  52  89 W6        29.97S
MOBRIDGE       CLEAR     53  50  89 CALM      29.95R
RAPID CITY     CLEAR     50  45  83 W7        30.05R
$$

  *****  SOME WEATHER IN NEARBY STATES *****

CITY           SKY/WX    TMP DP  RH WIND       PRES   REMARKS
GLASGOW MT     CLEAR     50  38  63 W3        29.98S
GREAT FALLS MT CLOUDY    42  33  70 S9        30.03S
CHEYENNE WY    CLEAR     47  37  68 W6        30.16S
SCOTTSBLUFF NE MOCLDY    49  44  83 SE8       30.08F
OMAHA NE       CLEAR     59  54  83 CALM      29.99S
DES MOINES IA  PTCLDY    62  56  80 W9        29.96R
DAVENPORT IA   CLEAR     66  58  75 S9        29.94S
CHICAGO IL     CLOUDY    65  61  87 SW7       29.94S
EAU CLAIRE WI  HVY RAIN  60  59  96 S3        29.81F FOG
LA CROSSE WI   MOCLDY    63  60  90 CALM      29.83S
$$

  *****  SOME NATIONAL WEATHER *****

CITY           SKY/WX    TMP DP  RH WIND       PRES   REMARKS
LA GUARDIA NY  CLEAR     76  59  55 SW6       30.11F
RALEIGH NC     CLOUDY    71  67  87 E5        30.09F
ATLANTA GA     CLOUDY    69  60  73 NW7       30.10S
NEW ORLEANS LA PTCLDY    72  69  90 E3        30.03F
OKLAHOMA CITY  CLOUDY    71  69  93 S7        30.04R
ALBUQUERQUE NM CLOUDY    65  21  18 E3        30.09S
SALT LAKE CITY PTCLDY    61  39  44 SE8       30.06S
LOS ANGELES CA CLOUDY    60  53  77 VRB3      29.97S
BOISE ID       PTCLDY    53  36  52 SE7       30.02S
SEATTLE WA     MOCLDY    54  52  93 S6        30.05S
$$

*** WEATHER ACROSS MANITOBA...SASKATCHEWAN AND ONTARIO ***
                ***ONTARIO***

CITY           SKY/WX    TMP DP  RH WIND       PRES   REMARKS
GERALDTON      LGT RAIN  54  54 100 N5        29.80F VSB 3/4
THUNDER BAY    CLOUDY    57  57 100 CALM      29.79S FOG
SIOUX LOOKOUT  DRIZZLE   52  50  93 VRB2      29.84F FOG
TORONTO        MOCLDY    72  64  78 W6        30.04S
BIG TROUT LK   CLOUDY    50  43  76 E8        30.06F
PICKLE LAKE    NOT AVBL
DRYDEN         CLOUDY    52  50  93 NE9       29.82F
KENORA         LGT RAIN  52  52 100 N6        29.84F VSB 3/4
$$
                *** MANITOBA***

CITY           SKY/WX    TMP DP  RH WIND       PRES   REMARKS
BRANDON        CLOUDY    50  50 100 SW3       29.93S
DAUPHIN        CLOUDY    50  50 100 VRB2      29.93F
ISLAND LAKE    CLOUDY    50  46  87 E7        30.01F
PILOT MOUND      N/A     54  52  94 N6          N/A
THE PAS        CLOUDY    46  43  87 E3        29.99F
THOMPSON       LGT RAIN  45  45 100 NE7       30.05F FOG
WINNIPEG       CLOUDY    55  54  94 N6        29.90S
LYNN LAKE      CLOUDY    45  39  81 S3        30.04F
CHURCHILL      CLOUDY    27  27 100 E10       30.25F WCI  17
$$
                ***SASKATCHEWAN***

CITY           SKY/WX    TMP DP  RH WIND       PRES   REMARKS
ESTEVAN        NOT AVBL
KINDERSLEY     PTCLDY    46  43  87 S7        29.88S
LLOYDMINSTER   FOG       41  39  93 W6        29.86S VSB 3/8
PRINCE ALBERT  LGT RAIN  48  45  87 E12G18    29.89S
REGINA         CLEAR     43  43 100 SW8       29.92S
YORKTON        LGT RAIN  50  48  93 SE7       29.91F
N. BATTLEFORD  CLEAR     46  46 100 W6        29.88S
LA RONGE       CLOUDY    50  45  81 E7        29.95S
SASKATOON      PTCLDY    46  46 100 SW5       29.88S
SWIFT CURRENT  CLEAR     45  41  87 S10       29.91S
$$
NOTE: THESE ARE AUTOMATED STATIONS WITH LIMITED QUALITY CONTROL
      "FAIR" INDICATES FEW OR NO CLOUDS BELOW 12,000 FEET WITH NO
      SIGNIFICANT WEATHER AND/OR OBSTRUCTIONS TO VISIBILITY.
      SKY/WX - SKY CONDITION AND SIGNIFICANT WEATHER.
      TMP - AIR TEMPERATURE.    DP   - DEWPOINT TEMPERATURE.
      RH  - RELATIVE HUMIDITY.  PRES - PRESSURE.
      HX  - HEAT INDEX.         WCI  - WIND CHILL INDEX.
$




USA.gov is the U.S. government's official web portal to all federal, state and local government web resources and services.